McConnell AFB, KS

7:34 PM CDT on September 20, 2019 (GMT -0500)
McConnell Air Force Base

Weather History for KIAB - May, 2019

Change the Weather History Date:

Tuesday, May 28, 2019

  Actual Average Record
Temperature  
Mean Temperature 75 °F -  
Max Temperature 82 °F 77 °F 91 °F (2004)
Min Temperature 70 °F 57 °F 50 °F (1997)
Cooling Degree Days 10    
Growing Degree Days 25 (Base 50)    
Moisture  
Dew Point 70 °F    
Average Humidity 78    
Maximum Humidity 88    
Minimum Humidity 70    
Precipitation  
Precipitation 0.00 in - - ()
Sea Level Pressure  
Sea Level Pressure 29.57 in    
Wind  
Wind Speed 17 mph (SE)    
Max Wind Speed 24 mph    
Max Gust Speed 32 mph    
Visibility 10 miles    
Events Thunderstorm    
Averages and records for this station are not official NWS values.
T = Trace of Precipitation, MM = Missing Value Source: NWS Daily Summary

Daily Weather History Graph

Daily Weather History Graph

Search for Another Location

Airport or City:

Astronomy

May. 28, 2019 Rise Set
Actual Time 6:11 AM CDT 8:42 PM CDT
Civil Twilight 5:40 AM CDT 9:12 PM CDT
Nautical Twilight 5:03 AM CDT 9:50 PM CDT
Astronomical Twilight 4:21 AM CDT 10:31 PM CDT
Moon 3:14 AM CDT (5/28) 3:01 PM CDT (5/28)
Length of Visible Light 15h 31m
Length of Day
14h 30m
Waning Crescent, 31% of the Moon is Illuminated
May 28
Waning Crescent
Jun 3
New
Jun 10
First Quarter
Jun 17
Full
Jun 25
Last Quarter

Hourly Weather History & Observations

Time (CDT) Temp. Heat Index Dew Point Humidity Pressure Visibility Wind Dir Wind Speed Gust Speed Precip Events Conditions
12:56 AM 71.6 °F - 67.1 °F 86% 29.66 in 10.0 mi ESE 10.4 mph - N/A   Clear
2:56 AM 71.6 °F - 66.4 °F 84% 29.62 in 10.0 mi SE 11.5 mph - N/A   Clear
3:56 AM 71.1 °F - 66.2 °F 85% 29.61 in 10.0 mi SE 13.8 mph - N/A   Clear
4:56 AM 70.5 °F - 66.0 °F 86% 29.60 in 10.0 mi SE 17.3 mph 23.0 mph N/A   Clear
5:56 AM 70.0 °F - 65.8 °F 87% 29.61 in 10.0 mi SE 15.0 mph - N/A   Scattered Clouds
6:56 AM 70.0 °F - 65.8 °F 87% 29.61 in 10.0 mi SE 13.8 mph - N/A   Clear
7:56 AM - - - N/A% - - North - - N/A   Unknown
8:23 AM 73.4 °F - 68.0 °F 83% 29.60 in 7.0 mi South 12.7 mph - N/A   Mostly Cloudy
8:56 AM 72.7 °F - 66.7 °F 82% - 10.0 mi SSE 21.9 mph 28.8 mph N/A   Unknown
8:58 AM 72.7 °F - 66.7 °F 82% 29.61 in 10.0 mi SSE 18.4 mph 28.8 mph N/A   Mostly Cloudy
9:00 AM 73.4 °F - 66.2 °F 78% - 10.0 mi SSE 19.6 mph 28.8 mph N/A   Overcast
9:01 AM 73.4 °F - 68.0 °F 83% 29.60 in 10.0 mi SSE 19.6 mph 28.8 mph N/A   Overcast
9:30 AM 73.4 °F - 68.0 °F 83% 29.59 in 10.0 mi SE 18.4 mph 24.2 mph N/A   Overcast
9:56 AM 73.0 °F - 67.5 °F 83% 29.58 in 10.0 mi SE 20.7 mph - N/A   Overcast
10:42 AM 73.4 °F - 68.0 °F 83% 29.60 in 10.0 mi SSE 17.3 mph - N/A   Overcast
10:56 AM 73.8 °F - 68.5 °F 84% 29.60 in 10.0 mi SSE 17.3 mph 21.9 mph N/A   Overcast
12:49 PM 78.8 °F - 69.8 °F 74% 29.58 in 10.0 mi SSE 18.4 mph - N/A   Overcast
12:56 PM 79.0 °F - 70.3 °F 75% 29.57 in 10.0 mi SSE 20.7 mph - N/A   Overcast
1:56 PM 79.3 °F - 70.7 °F 75% 29.56 in 10.0 mi SE 16.1 mph - N/A   Mostly Cloudy
2:46 PM 78.8 °F - 71.6 °F 78% 29.56 in 10.0 mi SE 18.4 mph 25.3 mph N/A   Light Drizzle
2:47 PM 78.8 °F - 71.6 °F 78% 29.56 in 10.0 mi SE 16.1 mph 25.3 mph N/A   Light Drizzle
2:56 PM 78.6 °F - 71.1 °F 78% 29.56 in 10.0 mi SE 19.6 mph 25.3 mph 0.00 in   Light Drizzle
2:57 PM 78.8 °F - 71.6 °F 78% 29.56 in 10.0 mi SE 18.4 mph 25.3 mph N/A   Mostly Cloudy
3:07 PM 80.6 °F 84.6 °F 71.6 °F 74% 29.56 in 10.0 mi SSE 23.0 mph 29.9 mph N/A   Mostly Cloudy
3:20 PM 80.6 °F 84.6 °F 71.6 °F 74% 29.56 in 10.0 mi SE 20.7 mph 29.9 mph N/A   Mostly Cloudy
3:28 PM 80.6 °F 84.6 °F 71.6 °F 74% 29.56 in 10.0 mi SE 17.3 mph 26.5 mph N/A   Mostly Cloudy
3:30 PM 80.6 °F 84.6 °F 71.6 °F 74% 29.56 in 10.0 mi ESE 16.1 mph 26.5 mph N/A   Mostly Cloudy
3:31 PM 80.6 °F 84.6 °F 71.6 °F 74% 29.56 in 10.0 mi SE 16.1 mph 26.5 mph N/A   Mostly Cloudy
3:41 PM 78.8 °F - 71.6 °F 78% 29.55 in 10.0 mi SE 19.6 mph 26.5 mph N/A   Mostly Cloudy
3:49 PM 80.6 °F 84.6 °F 71.6 °F 74% 29.55 in 10.0 mi SE 17.3 mph 26.5 mph N/A   Scattered Clouds
3:56 PM 80.6 °F 84.4 °F 71.4 °F 73% 29.55 in 10.0 mi SE 23.0 mph 29.9 mph 0.00 in   Mostly Cloudy
3:58 PM 80.6 °F 84.6 °F 71.6 °F 74% 29.55 in 10.0 mi SE 23.0 mph 29.9 mph N/A   Mostly Cloudy
3:59 PM 80.6 °F 84.6 °F 71.6 °F 74% 29.55 in 10.0 mi SE 23.0 mph 29.9 mph N/A   Mostly Cloudy
4:07 PM 80.6 °F 84.6 °F 71.6 °F 74% 29.54 in 10.0 mi SE 21.9 mph 29.9 mph N/A   Scattered Clouds
4:15 PM 78.8 °F - 71.6 °F 78% 29.55 in 10.0 mi SE 24.2 mph 32.2 mph N/A   Mostly Cloudy
4:39 PM 80.6 °F 84.6 °F 71.6 °F 74% 29.54 in 10.0 mi SE 19.6 mph 26.5 mph N/A   Scattered Clouds
4:56 PM 80.8 °F 84.7 °F 71.2 °F 73% 29.54 in 10.0 mi SE 18.4 mph 27.6 mph N/A   Scattered Clouds
5:16 PM 80.6 °F 83.9 °F 69.8 °F 70% 29.53 in 10.0 mi South 18.4 mph 24.2 mph N/A   Partly Cloudy
5:19 PM 80.6 °F 83.9 °F 69.8 °F 70% 29.53 in 10.0 mi SE 24.2 mph 29.9 mph N/A   Partly Cloudy
5:56 PM 80.6 °F 83.9 °F 69.8 °F 70% 29.52 in 10.0 mi SE 20.7 mph 28.8 mph N/A   Clear
6:56 PM 80.4 °F 83.8 °F 70.2 °F 71% 29.50 in 10.0 mi SE 20.7 mph 28.8 mph N/A Thunderstorm Scattered Clouds
7:13 PM 78.8 °F - 69.8 °F 74% 29.55 in 10.0 mi SE 20.7 mph 32.2 mph N/A Thunderstorm Thunderstorm
7:28 PM 78.8 °F - 69.8 °F 74% 29.56 in 10.0 mi SE 19.6 mph 28.8 mph N/A   Partly Cloudy
7:56 PM 78.3 °F - 69.6 °F 75% 29.56 in 10.0 mi SE 19.6 mph - N/A   Partly Cloudy
8:13 PM 78.8 °F - 69.8 °F 74% 29.56 in 10.0 mi SE 20.7 mph 32.2 mph N/A Thunderstorm Thunderstorm
8:28 PM 78.8 °F - 69.8 °F 74% 29.58 in 10.0 mi SSE 20.7 mph 32.2 mph N/A   Clear
8:56 PM 76.8 °F - 69.4 °F 78% 29.56 in 10.0 mi SSE 18.4 mph 25.3 mph N/A   Clear
9:25 PM 75.2 °F - 69.8 °F 83% 29.58 in 10.0 mi SSW 11.5 mph - N/A   Clear
9:36 PM 75.2 °F - 69.8 °F 83% 29.60 in 10.0 mi South 12.7 mph - N/A   Clear
9:56 PM 75.2 °F - 69.6 °F 83% 29.62 in 10.0 mi South 13.8 mph 21.9 mph N/A   Clear
10:56 PM 73.6 °F - 68.0 °F 83% 29.62 in 10.0 mi SSE 13.8 mph - N/A   Clear
11:56 PM 71.2 °F - 67.5 °F 88% 29.65 in 10.0 mi SSE 10.4 mph - N/A   Clear